Time,TemperatureF,DewpointF,PressureIn,WindDirection,WindDirectionDegrees,WindSpeedMPH,WindSpeedGustMPH,Humidity,HourlyPrecipIn,Conditions,Clouds,dailyrainin,SoftwareType,DateUTC
2013-07-19 00:00:00,59.0,54.0,-100.00,WSW,252,0.0,-999.0,84,0.00,,,-99.99,,2013-07-19 07:00:00,
2013-07-19 00:33:00,59.0,54.0,-100.00,WSW,252,0.0,-999.0,84,0.00,,,-99.99,,2013-07-19 07:33:00,
2013-07-19 00:53:00,59.0,54.0,-100.00,WSW,252,0.0,-999.0,84,0.00,,,-99.99,,2013-07-19 07:53:00,
2013-07-19 01:00:00,58.0,53.0,-100.00,NNE,30,1.0,-999.0,83,0.00,,,-99.99,,2013-07-19 08:00:00,
2013-07-19 01:33:00,58.0,53.0,-100.00,NNE,30,1.0,-999.0,83,0.00,,,-99.99,,2013-07-19 08:33:00,
2013-07-19 01:52:00,58.0,53.0,-100.00,NNE,30,1.0,-999.0,83,0.00,,,-99.99,,2013-07-19 08:52:00,
2013-07-19 02:00:00,57.0,52.0,-100.00,ENE,60,2.0,-999.0,84,0.00,,,-99.99,,2013-07-19 09:00:00,
2013-07-19 02:32:00,57.0,52.0,-100.00,ENE,60,2.0,-999.0,84,0.00,,,-99.99,,2013-07-19 09:32:00,
2013-07-19 02:52:00,57.0,52.0,-100.00,ENE,60,2.0,-999.0,84,0.00,,,-99.99,,2013-07-19 09:52:00,
2013-07-19 03:00:00,56.0,52.0,-100.00,NNE,24,1.0,-999.0,85,0.00,,,-99.99,,2013-07-19 10:00:00,
2013-07-19 03:33:00,56.0,52.0,-100.00,NNE,24,1.0,-999.0,85,0.00,,,-99.99,,2013-07-19 10:33:00,
2013-07-19 03:52:00,56.0,52.0,-100.00,NNE,24,1.0,-999.0,85,0.00,,,-99.99,,2013-07-19 10:52:00,
2013-07-19 04:00:00,55.0,51.0,-100.00,NNE,17,2.0,-999.0,85,0.00,,,-99.99,,2013-07-19 11:00:00,
2013-07-19 04:22:00,55.0,51.0,-100.00,NNE,17,2.0,-999.0,85,0.00,,,-99.99,,2013-07-19 11:22:00,
2013-07-19 04:33:00,55.0,51.0,-100.00,NNE,17,2.0,-999.0,85,0.00,,,-99.99,,2013-07-19 11:33:00,
2013-07-19 04:52:00,55.0,51.0,-100.00,NNE,17,2.0,-999.0,85,0.00,,,-99.99,,2013-07-19 11:52:00,
2013-07-19 05:00:00,54.0,50.0,-100.00,NNE,27,2.0,-999.0,85,0.00,,,-99.99,,2013-07-19 12:00:00,
2013-07-19 05:52:00,54.0,50.0,-100.00,NNE,27,2.0,-999.0,85,0.00,,,-99.99,,2013-07-19 12:52:00,
2013-07-19 06:32:00,54.0,50.0,-100.00,ESE,104,2.0,-999.0,86,0.00,,,-99.99,,2013-07-19 13:32:00,
2013-07-19 06:43:00,54.0,50.0,-100.00,ESE,104,2.0,-999.0,86,0.00,,,-99.99,,2013-07-19 13:43:00,
2013-07-19 06:53:00,54.0,50.0,-100.00,ESE,104,2.0,-999.0,86,0.00,,,-99.99,,2013-07-19 13:53:00,
2013-07-19 07:00:00,54.0,51.0,-100.00,ENE,60,2.0,-999.0,87,0.00,,,-99.99,,2013-07-19 14:00:00,
2013-07-19 07:33:00,54.0,51.0,-100.00,ENE,60,2.0,-999.0,87,0.00,,,-99.99,,2013-07-19 14:33:00,
2013-07-19 07:53:00,54.0,51.0,-100.00,ENE,60,2.0,-999.0,87,0.00,,,-99.99,,2013-07-19 14:53:00,
2013-07-19 08:00:00,57.0,53.0,-100.00,North,8,0.0,-999.0,85,0.00,,,-99.99,,2013-07-19 15:00:00,
2013-07-19 08:52:00,57.0,53.0,-100.00,North,8,0.0,-999.0,85,0.00,,,-99.99,,2013-07-19 15:52:00,
2013-07-19 09:00:00,62.0,56.0,-100.00,SW,222,1.0,-999.0,79,0.00,,,-99.99,,2013-07-19 16:00:00,
2013-07-19 09:32:00,62.0,56.0,-100.00,SW,222,1.0,-999.0,79,0.00,,,-99.99,,2013-07-19 16:32:00,
2013-07-19 09:52:00,62.0,56.0,-100.00,SW,222,1.0,-999.0,79,0.00,,,-99.99,,2013-07-19 16:52:00,
2013-07-19 10:00:00,66.0,55.0,-100.00,WSW,242,3.0,-999.0,68,0.00,,,-99.99,,2013-07-19 17:00:00,
2013-07-19 10:32:00,66.0,55.0,-100.00,WSW,242,3.0,-999.0,68,0.00,,,-99.99,,2013-07-19 17:32:00,
2013-07-19 10:43:00,66.0,55.0,-100.00,WSW,242,3.0,-999.0,68,0.00,,,-99.99,,2013-07-19 17:43:00,
2013-07-19 10:52:00,66.0,55.0,-100.00,WSW,242,3.0,-999.0,68,0.00,,,-99.99,,2013-07-19 17:52:00,
2013-07-19 11:00:00,70.0,56.0,-100.00,SSW,203,5.0,-999.0,60,0.00,,,-99.99,,2013-07-19 18:00:00,
2013-07-19 11:32:00,70.0,56.0,-100.00,SSW,203,5.0,-999.0,60,0.00,,,-99.99,,2013-07-19 18:32:00,
2013-07-19 11:42:00,70.0,56.0,-100.00,SSW,203,5.0,-999.0,60,0.00,,,-99.99,,2013-07-19 18:42:00,
2013-07-19 11:52:00,70.0,56.0,-100.00,SSW,203,5.0,-999.0,60,0.00,,,-99.99,,2013-07-19 18:52:00,
2013-07-19 12:00:00,72.0,55.0,-100.00,West,262,4.0,-999.0,54,0.00,,,-99.99,,2013-07-19 19:00:00,
2013-07-19 12:32:00,72.0,55.0,-100.00,West,262,4.0,-999.0,54,0.00,,,-99.99,,2013-07-19 19:32:00,
2013-07-19 12:52:00,72.0,55.0,-100.00,West,262,4.0,-999.0,54,0.00,,,-99.99,,2013-07-19 19:52:00,
2013-07-19 13:00:00,75.0,56.0,-100.00,West,270,6.0,-999.0,51,0.00,,,-99.99,,2013-07-19 20:00:00,
2013-07-19 13:33:00,75.0,56.0,-100.00,West,270,6.0,-999.0,51,0.00,,,-99.99,,2013-07-19 20:33:00,
2013-07-19 13:52:00,75.0,56.0,-100.00,West,270,6.0,-999.0,51,0.00,,,-99.99,,2013-07-19 20:52:00,
2013-07-19 14:00:00,76.0,55.0,-100.00,SSW,212,4.0,-999.0,49,0.00,,,-99.99,,2013-07-19 21:00:00,
2013-07-19 14:52:00,76.0,55.0,-100.00,SSW,212,4.0,-999.0,49,0.00,,,-99.99,,2013-07-19 21:52:00,
2013-07-19 15:00:00,73.0,55.0,-100.00,SW,235,9.0,-999.0,52,0.00,,,-99.99,,2013-07-19 22:00:00,
2013-07-19 15:52:00,73.0,55.0,-100.00,SW,235,9.0,-999.0,52,0.00,,,-99.99,,2013-07-19 22:52:00,
2013-07-19 16:00:00,73.0,54.0,-100.00,WSW,251,4.0,-999.0,50,0.00,,,-99.99,,2013-07-19 23:00:00,
2013-07-19 16:33:00,73.0,54.0,-100.00,WSW,251,4.0,-999.0,50,0.00,,,-99.99,,2013-07-19 23:33:00,
2013-07-19 16:43:00,73.0,54.0,-100.00,WSW,251,4.0,-999.0,50,0.00,,,-99.99,,2013-07-19 23:43:00,
2013-07-19 16:52:00,73.0,54.0,-100.00,WSW,251,4.0,-999.0,50,0.00,,,-99.99,,2013-07-19 23:52:00,
2013-07-19 17:00:00,74.0,54.0,-100.00,SSW,201,5.0,-999.0,48,0.00,,,-99.99,,2013-07-20 00:00:00,
2013-07-19 17:43:00,74.0,54.0,-100.00,SSW,201,5.0,-999.0,48,0.00,,,-99.99,,2013-07-20 00:43:00,
2013-07-19 17:52:00,74.0,54.0,-100.00,SSW,201,5.0,-999.0,48,0.00,,,-99.99,,2013-07-20 00:52:00,
2013-07-19 18:00:00,73.0,54.0,-100.00,WSW,247,4.0,-999.0,52,0.00,,,-99.99,,2013-07-20 01:00:00,
2013-07-19 18:32:00,73.0,54.0,-100.00,WSW,247,4.0,-999.0,52,0.00,,,-99.99,,2013-07-20 01:32:00,
2013-07-19 18:52:00,73.0,54.0,-100.00,WSW,247,4.0,-999.0,52,0.00,,,-99.99,,2013-07-20 01:52:00,
2013-07-19 19:00:00,69.0,55.0,-100.00,West,267,3.0,-999.0,60,0.00,,,-99.99,,2013-07-20 02:00:00,
2013-07-19 19:33:00,69.0,55.0,-100.00,West,267,3.0,-999.0,60,0.00,,,-99.99,,2013-07-20 02:33:00,
2013-07-19 19:44:00,69.0,55.0,-100.00,West,267,3.0,-999.0,60,0.00,,,-99.99,,2013-07-20 02:44:00,
2013-07-19 19:52:00,69.0,55.0,-100.00,West,267,3.0,-999.0,60,0.00,,,-99.99,,2013-07-20 02:52:00,
2013-07-19 20:00:00,66.0,55.0,-100.00,WSW,245,3.0,-999.0,66,0.00,,,-99.99,,2013-07-20 03:00:00,
2013-07-19 20:53:00,66.0,55.0,-100.00,WSW,245,3.0,-999.0,66,0.00,,,-99.99,,2013-07-20 03:53:00,
2013-07-19 21:00:00,62.0,55.0,-100.00,WSW,242,1.0,-999.0,78,0.00,,,-99.99,,2013-07-20 04:00:00,
2013-07-19 21:33:00,62.0,55.0,-100.00,WSW,242,1.0,-999.0,78,0.00,,,-99.99,,2013-07-20 04:33:00,
2013-07-19 21:52:00,62.0,55.0,-100.00,WSW,242,1.0,-999.0,78,0.00,,,-99.99,,2013-07-20 04:52:00,
2013-07-19 22:00:00,60.0,55.0,-100.00,SSW,198,1.0,-999.0,83,0.00,,,-99.99,,2013-07-20 05:00:00,
2013-07-19 22:32:00,60.0,55.0,-100.00,SSW,198,1.0,-999.0,83,0.00,,,-99.99,,2013-07-20 05:32:00,
2013-07-19 22:52:00,60.0,55.0,-100.00,SSW,198,1.0,-999.0,83,0.00,,,-99.99,,2013-07-20 05:52:00,
2013-07-19 23:00:00,58.0,54.0,-100.00,WSW,241,0.0,-999.0,85,0.00,,,-99.99,,2013-07-20 06:00:00,
2013-07-19 23:32:00,58.0,54.0,-100.00,WSW,241,0.0,-999.0,85,0.00,,,-99.99,,2013-07-20 06:32:00,
2013-07-19 23:52:00,58.0,54.0,-100.00,WSW,241,0.0,-999.0,85,0.00,,,-99.99,,2013-07-20 06:52:00,